Home > Weather > Tuba City > Past weeks

Flag for U.S.A. Weather for the Past 2 Weeks in Tuba City, Arizona, U.S.A.

Now
21 °F

Clear.


Feels Like: 21 °F
Forecast: 25 / 63 °F
Wind: No wind

Location: Grand Canyon National Park Airport

Current Time: Feb 11, 2016 at 3:54:50 AM

Latest Report: Feb 11, 2016 at 2:54 AM


Visibility: 10 mi

Pressure: 30.29 "Hg (24.97 "Hg at 1510m altitude)

Humidity: 81%

Dew point: 16 °F

Location of Tuba CityLocation

Historic Weather in Tuba City — Graph

°F

Tuba City Temperature Yesterday

Maximum temperature yesterday: 64 °F (at 1:54 PM)
Minimum temperature yesterday: 22 °F (at 5:54 AM)
Average temperature yesterday: 39 °F

High & Low Weather Summary for the Past Weeks

 TemperatureHumidityPressure
High64 °F (Feb 10, 1:54 PM)92% (Jan 31, 8:54 PM)30.63 "Hg (Jan 31, 8:54 PM)
Low-12 °F (Feb 3, 6:54 AM)9% (Feb 10, 3:54 PM)29.32 "Hg (Feb 1, 2:54 AM)
Average30 °F59%30.24 "Hg
* Reported Jan 27 2:54 AM — Feb 11 2:54 AM, Tuba City, Weather by CustomWeather, © 2016

Note: Actual official high and low records may vary slightly from our data, if they occured in-between our weather recording intervals... More about our weather records

Advertising

Tuba City Weather History for the Previous 24 Hours

 ConditionsComfort  
Time TempWeatherWind HumidityBarometerVisibility
2:54 AM
Thu, Feb 11
21 °FClear.No wind81%30.29 "Hg10 mi
1:54 AM21 °FClear.No wind81%30.28 "Hg10 mi
12:54 AM23 °FClear.3 mph74%30.29 "Hg10 mi
11:54 PM
Wed, Feb 10
24 °FClear.No wind75%30.30 "Hg10 mi
10:54 PM25 °FClear.No wind72%30.31 "Hg10 mi
9:54 PM28 °FClear.5 mph64%30.31 "Hg10 mi
8:54 PM29 °FClear.3 mph64%30.37 "Hg10 mi
7:54 PM31 °FClear.5 mph64%30.43 "Hg10 mi
6:54 PM36 °FClear.3 mph48%30.42 "Hg10 mi
5:54 PM49 °FSunny.No wind28%30.34 "Hg10 mi
4:54 PM62 °FSunny.5 mph13%30.27 "Hg10 mi
3:54 PM64 °FSunny.5 mph9%30.28 "Hg10 mi
2:54 PM63 °FSunny.5 mph11%30.29 "Hg10 mi
1:54 PM64 °FSunny.6 mph10%30.29 "Hg10 mi
12:54 PM63 °FSunny.7 mph13%30.32 "Hg10 mi
11:54 AM62 °FSunny.No wind13%30.32 "Hg10 mi
10:54 AM59 °FSunny.3 mph14%30.37 "Hg10 mi
9:54 AM55 °FSunny.5 mph18%30.38 "Hg10 mi
8:54 AM39 °FSunny.No wind50%30.46 "Hg10 mi
7:54 AM25 °FSunny.5 mph72%30.51 "Hg10 mi
6:54 AM23 °FClear.3 mph74%30.47 "Hg10 mi
5:54 AM22 °FClear.3 mph78%30.39 "Hg10 mi
4:54 AM25 °FClear.12 mph72%30.34 "Hg10 mi
3:54 AM23 °FClear.6 mph78%30.35 "Hg10 mi
Weather by CustomWeather, © 2016

See weather overviewHow to use our weather pages